UAL2756 KDEN-KSEA

Flight info

Callsign UAL2756
Flight time 2h 24m
Altitude 40000
Route DDRTH1 DDRTH IDA PDT CHINS5
Aircraft B772/H-SDE2E3FGHIJ5LORVWXY/LB1D1

Departure

Time 2026-05-07 15:08
Airport Denver International Airport (KDEN)

Arrival

Time 2026-05-07 17:33
Airport Seattle–Tacoma International Airport (KSEA)
Time Latitude Longitude Altitude Speed Heading
2026-05-07 14:32 39.85800 -104.67204 5370 ft 0 kts
2026-05-07 14:58 39.85793 -104.67204 5367 ft 2 kts
2026-05-07 14:58 39.85780 -104.67205 5369 ft 2 kts
2026-05-07 14:58 39.85764 -104.67207 5368 ft 2 kts
2026-05-07 14:58 39.85748 -104.67212 5368 ft 2 kts 26°
2026-05-07 14:59 39.85735 -104.67225 5367 ft 2 kts 75°
2026-05-07 14:59 39.85733 -104.67240 5367 ft 1 kts 92°
2026-05-07 14:59 39.85733 -104.67241 5366 ft 0 kts 92°
2026-05-07 15:04 39.85733 -104.67151 5370 ft 11 kts 90°
2026-05-07 15:04 39.85731 -104.66961 5370 ft 20 kts 91°
2026-05-07 15:04 39.85699 -104.66821 5369 ft 15 kts 143°
2026-05-07 15:05 39.85660 -104.66703 5369 ft 15 kts 92°
2026-05-07 15:05 39.85663 -104.66570 5367 ft 15 kts 78°
2026-05-07 15:05 39.85679 -104.66438 5368 ft 15 kts 91°
2026-05-07 15:05 39.85678 -104.66304 5367 ft 15 kts 87°
2026-05-07 15:06 39.85752 -104.66233 5368 ft 15 kts
2026-05-07 15:06 39.85855 -104.66231 5368 ft 15 kts 360°
2026-05-07 15:06 39.85958 -104.66230 5368 ft 15 kts
2026-05-07 15:06 39.86061 -104.66227 5367 ft 15 kts
2026-05-07 15:07 39.86105 -104.66131 5367 ft 11 kts 88°
2026-05-07 15:07 39.86099 -104.66035 5367 ft 11 kts 120°
2026-05-07 15:07 39.86062 -104.66016 5368 ft 0 kts 177°
2026-05-07 15:07 39.86058 -104.66016 5370 ft 9 kts 177°
2026-05-07 15:08 39.85672 -104.66020 5369 ft 102 kts 181°
2026-05-07 15:08 39.84677 -104.66024 5373 ft 181 kts 181°
2026-05-07 15:08 39.83340 -104.66019 6121 ft 198 kts 184°
2026-05-07 15:08 39.81909 -104.66089 6985 ft 215 kts 187°
2026-05-07 15:09 39.80360 -104.66235 7448 ft 235 kts 188°
2026-05-07 15:09 39.78629 -104.66437 7667 ft 258 kts 189°
2026-05-07 15:09 39.76811 -104.66711 8213 ft 267 kts 195°
2026-05-07 15:09 39.75017 -104.67641 8388 ft 293 kts 215°
2026-05-07 15:10 39.73412 -104.69447 8539 ft 316 kts 232°
2026-05-07 15:10 39.72193 -104.71844 9185 ft 320 kts 246°
2026-05-07 15:10 39.71394 -104.74510 10181 ft 314 kts 257°
2026-05-07 15:10 39.71000 -104.77220 11082 ft 309 kts 267°
2026-05-07 15:11 39.71146 -104.80013 11535 ft 320 kts 289°
2026-05-07 15:11 39.72332 -104.82553 11735 ft 345 kts 316°
2026-05-07 15:11 39.74409 -104.84233 12146 ft 359 kts 336°
2026-05-07 15:11 39.76772 -104.85472 12847 ft 370 kts 337°
2026-05-07 15:12 39.79144 -104.86800 13788 ft 374 kts 335°
2026-05-07 15:12 39.81496 -104.88273 14714 ft 375 kts 332°
2026-05-07 15:12 39.83813 -104.89868 15650 ft 377 kts 330°
2026-05-07 15:12 39.86090 -104.91546 16538 ft 379 kts 328°
2026-05-07 15:13 39.88360 -104.93294 17373 ft 382 kts 328°
2026-05-07 15:13 39.90639 -104.95098 18183 ft 385 kts 327°
2026-05-07 15:13 39.92932 -104.96940 18855 ft 389 kts 327°
2026-05-07 15:13 39.95240 -104.98808 19519 ft 392 kts 327°
2026-05-07 15:14 39.97560 -105.00694 20172 ft 394 kts 326°
2026-05-07 15:14 39.99896 -105.02596 20801 ft 398 kts 326°
2026-05-07 15:14 40.02234 -105.04501 21412 ft 401 kts 326°
2026-05-07 15:14 40.04611 -105.06439 22007 ft 405 kts 326°
2026-05-07 15:15 40.06970 -105.08364 22595 ft 408 kts 326°
2026-05-07 15:15 40.09387 -105.10335 23214 ft 412 kts 326°
2026-05-07 15:15 40.11825 -105.12326 23806 ft 415 kts 326°
2026-05-07 15:15 40.14280 -105.14332 24292 ft 418 kts 326°
2026-05-07 15:16 40.16751 -105.16353 24810 ft 419 kts 326°
2026-05-07 15:16 40.19212 -105.18367 25310 ft 421 kts 326°
2026-05-07 15:16 40.21702 -105.20407 25827 ft 423 kts 326°
2026-05-07 15:16 40.24207 -105.22460 26321 ft 426 kts 326°
2026-05-07 15:17 40.26725 -105.24527 26805 ft 428 kts 325°
2026-05-07 15:17 40.29254 -105.26605 27261 ft 430 kts 325°
2026-05-07 15:17 40.31784 -105.28685 27717 ft 433 kts 325°
2026-05-07 15:17 40.34343 -105.30791 28172 ft 435 kts 325°
2026-05-07 15:18 40.36911 -105.32905 28609 ft 437 kts 325°
2026-05-07 15:18 40.39489 -105.35031 29017 ft 439 kts 325°
2026-05-07 15:18 40.42088 -105.37175 29424 ft 441 kts 325°
2026-05-07 15:18 40.44694 -105.39327 29791 ft 444 kts 325°
2026-05-07 15:19 40.47308 -105.41488 30148 ft 445 kts 325°
2026-05-07 15:19 40.49938 -105.43664 30430 ft 447 kts 325°
2026-05-07 15:19 40.52572 -105.45844 30668 ft 449 kts 325°
2026-05-07 15:19 40.54329 -105.47298 30857 ft 450 kts 325°
2026-05-07 15:20 40.57634 -105.50040 31363 ft 447 kts 325°
2026-05-07 15:20 40.59375 -105.51484 31684 ft 445 kts 325°
2026-05-07 15:20 40.61984 -105.53652 32155 ft 442 kts 325°
2026-05-07 15:20 40.64573 -105.55805 32592 ft 440 kts 325°
2026-05-07 15:21 40.67170 -105.57955 33006 ft 439 kts 326°
2026-05-07 15:21 40.69747 -105.60080 33440 ft 437 kts 326°
2026-05-07 15:21 40.72314 -105.62202 33861 ft 435 kts 326°
2026-05-07 15:21 40.74875 -105.64328 34229 ft 434 kts 326°
2026-05-07 15:22 40.77428 -105.66457 34534 ft 434 kts 325°
2026-05-07 15:22 40.79982 -105.68593 34786 ft 435 kts 325°
2026-05-07 15:22 40.82535 -105.70733 35072 ft 435 kts 325°
2026-05-07 15:22 40.85095 -105.72881 35371 ft 436 kts 325°
2026-05-07 15:23 40.87653 -105.75031 35643 ft 436 kts 325°
2026-05-07 15:23 40.90217 -105.77186 35929 ft 437 kts 325°
2026-05-07 15:23 40.92783 -105.79346 36214 ft 437 kts 325°
2026-05-07 15:23 40.95348 -105.81506 36464 ft 438 kts 325°
2026-05-07 15:24 40.97922 -105.83676 36718 ft 439 kts 325°
2026-05-07 15:24 41.00461 -105.85818 36982 ft 439 kts 325°
2026-05-07 15:24 41.03069 -105.88021 37255 ft 439 kts 325°
2026-05-07 15:24 41.05599 -105.90159 37517 ft 440 kts 325°
2026-05-07 15:25 41.08192 -105.92353 37755 ft 441 kts 325°
2026-05-07 15:25 41.10776 -105.94542 37975 ft 442 kts 325°
2026-05-07 15:25 41.13366 -105.96738 38221 ft 442 kts 325°
2026-05-07 15:25 41.15957 -105.98936 38445 ft 443 kts 325°
2026-05-07 15:26 41.18559 -106.01146 38667 ft 444 kts 325°
2026-05-07 15:26 41.21162 -106.03358 38854 ft 445 kts 325°
2026-05-07 15:26 41.23770 -106.05578 39049 ft 445 kts 325°
2026-05-07 15:26 41.26375 -106.07797 39307 ft 444 kts 325°
2026-05-07 15:27 41.28968 -106.10008 39558 ft 442 kts 325°
2026-05-07 15:27 41.31551 -106.12213 39765 ft 441 kts 325°
2026-05-07 15:27 41.34138 -106.14424 39923 ft 441 kts 325°
2026-05-07 15:27 41.36726 -106.16636 39999 ft 444 kts 325°
2026-05-07 15:28 41.41932 -106.21137 40077 ft 446 kts 322°
2026-05-07 15:28 41.46341 -106.26864 40081 ft 442 kts 308°
2026-05-07 15:29 41.49646 -106.33724 40085 ft 439 kts 298°
2026-05-07 15:29 41.52410 -106.40919 40093 ft 438 kts 297°
2026-05-07 15:30 41.55158 -106.48157 40101 ft 436 kts 298°
2026-05-07 15:30 41.57922 -106.55356 40115 ft 435 kts 298°
2026-05-07 15:31 41.60688 -106.62520 40113 ft 433 kts 298°
2026-05-07 15:31 41.63450 -106.69670 40121 ft 432 kts 298°
2026-05-07 15:32 41.66196 -106.76798 40107 ft 431 kts 298°
2026-05-07 15:32 41.68933 -106.83920 40099 ft 430 kts 298°
2026-05-07 15:33 41.71662 -106.91040 40093 ft 429 kts 298°
2026-05-07 15:33 41.74381 -106.98151 40117 ft 429 kts 298°
2026-05-07 15:34 41.77097 -107.05273 40132 ft 429 kts 298°
2026-05-07 15:34 41.79807 -107.12396 40150 ft 429 kts 298°
2026-05-07 15:35 41.82512 -107.19524 40148 ft 428 kts 298°
2026-05-07 15:35 41.85207 -107.26644 40147 ft 428 kts 298°
2026-05-07 15:36 41.87892 -107.33753 40137 ft 427 kts 298°
2026-05-07 15:36 41.90576 -107.40878 40104 ft 427 kts 299°
2026-05-07 15:37 41.93250 -107.47996 40092 ft 427 kts 299°
2026-05-07 15:37 41.95918 -107.55112 40066 ft 426 kts 299°
2026-05-07 15:38 41.98562 -107.62184 40046 ft 426 kts 299°
2026-05-07 15:38 42.01214 -107.69297 40048 ft 426 kts 299°
2026-05-07 15:39 42.03868 -107.76430 40046 ft 426 kts 299°
2026-05-07 15:39 42.06516 -107.83567 40039 ft 426 kts 299°
2026-05-07 15:40 42.09162 -107.90712 40036 ft 427 kts 299°
2026-05-07 15:40 42.11803 -107.97864 40030 ft 428 kts 299°
2026-05-07 15:41 42.14446 -108.05039 40019 ft 429 kts 299°
2026-05-07 15:41 42.17093 -108.12245 40019 ft 429 kts 299°
2026-05-07 15:42 42.19739 -108.19464 40013 ft 430 kts 299°
2026-05-07 15:42 42.22383 -108.26697 40003 ft 430 kts 299°
2026-05-07 15:43 42.25017 -108.33922 39999 ft 430 kts 299°
2026-05-07 15:43 42.27652 -108.41170 39997 ft 429 kts 299°
2026-05-07 15:44 42.30262 -108.48366 39999 ft 429 kts 299°
2026-05-07 15:44 42.32896 -108.55645 40002 ft 428 kts 299°
2026-05-07 15:45 42.35488 -108.62828 40000 ft 428 kts 299°
2026-05-07 15:45 42.38094 -108.70067 40003 ft 427 kts 299°
2026-05-07 15:46 42.41979 -108.80895 40014 ft 426 kts 299°
2026-05-07 15:47 42.44559 -108.88108 40015 ft 426 kts 299°
2026-05-07 15:47 42.47131 -108.95319 40016 ft 425 kts 299°
2026-05-07 15:48 42.49700 -109.02539 40038 ft 424 kts 299°
2026-05-07 15:48 42.52258 -109.09749 40030 ft 424 kts 298°
2026-05-07 15:49 42.54808 -109.16952 40023 ft 424 kts 298°
2026-05-07 15:49 42.57350 -109.24154 40023 ft 423 kts 298°
2026-05-07 15:50 42.59888 -109.31362 40018 ft 423 kts 299°
2026-05-07 15:50 42.62421 -109.38571 40031 ft 423 kts 298°
2026-05-07 15:51 42.64946 -109.45780 40065 ft 422 kts 299°
2026-05-07 15:51 42.67445 -109.52930 40088 ft 422 kts 299°
2026-05-07 15:52 42.69954 -109.60131 40125 ft 421 kts 299°
2026-05-07 15:52 42.72456 -109.67329 40152 ft 421 kts 299°
2026-05-07 15:53 42.74953 -109.74531 40172 ft 420 kts 299°
2026-05-07 15:53 42.77439 -109.81721 40169 ft 420 kts 299°
2026-05-07 15:54 42.79928 -109.88939 40171 ft 421 kts 298°
2026-05-07 15:54 42.82415 -109.96167 40162 ft 422 kts 298°
2026-05-07 15:55 42.84902 -110.03416 40131 ft 423 kts 298°
2026-05-07 15:55 42.87389 -110.10683 40092 ft 423 kts 298°
2026-05-07 15:56 42.89872 -110.17961 40064 ft 423 kts 298°
2026-05-07 15:56 42.92353 -110.25253 40034 ft 424 kts 298°
2026-05-07 15:57 42.94829 -110.32545 40020 ft 423 kts 299°
2026-05-07 15:57 42.97281 -110.39786 40028 ft 423 kts 299°
2026-05-07 15:58 42.99746 -110.47087 40033 ft 423 kts 298°
2026-05-07 15:58 43.02206 -110.54390 40043 ft 423 kts 298°
2026-05-07 15:59 43.04661 -110.61700 40033 ft 423 kts 298°
2026-05-07 15:59 43.07110 -110.69018 40040 ft 423 kts 298°
2026-05-07 16:00 43.09556 -110.76340 40052 ft 423 kts 298°
2026-05-07 16:00 43.11993 -110.83656 40055 ft 422 kts 298°
2026-05-07 16:01 43.14426 -110.90981 40052 ft 422 kts 298°
2026-05-07 16:01 43.16861 -110.98327 40047 ft 424 kts 298°
2026-05-07 16:02 43.19292 -111.05692 40048 ft 424 kts 298°
2026-05-07 16:02 43.21712 -111.13036 40046 ft 422 kts 298°
2026-05-07 16:03 43.24107 -111.20324 40032 ft 422 kts 298°
2026-05-07 16:03 43.26509 -111.27658 40048 ft 422 kts 298°
2026-05-07 16:04 43.28915 -111.35013 40039 ft 423 kts 298°
2026-05-07 16:04 43.31318 -111.42388 40031 ft 423 kts 298°
2026-05-07 16:05 43.33718 -111.49775 40024 ft 423 kts 298°
2026-05-07 16:05 43.36114 -111.57169 40018 ft 424 kts 298°
2026-05-07 16:06 43.38507 -111.64572 40024 ft 423 kts 298°
2026-05-07 16:06 43.40893 -111.71974 40030 ft 423 kts 298°
2026-05-07 16:07 43.43260 -111.79338 40039 ft 423 kts 298°
2026-05-07 16:07 43.45631 -111.86739 40054 ft 422 kts 298°
2026-05-07 16:08 43.47995 -111.94133 40075 ft 422 kts 298°
2026-05-07 16:08 43.49972 -112.00335 40070 ft 422 kts 298°
2026-05-07 16:09 43.52726 -112.08904 40075 ft 420 kts 300°
2026-05-07 16:09 43.54873 -112.14946 40076 ft 418 kts 301°
2026-05-07 16:10 43.57492 -112.22108 40064 ft 418 kts 301°
2026-05-07 16:10 43.60088 -112.29278 40037 ft 418 kts 301°
2026-05-07 16:11 43.62660 -112.36465 40016 ft 418 kts 300°
2026-05-07 16:11 43.65220 -112.43662 39991 ft 417 kts 300°
2026-05-07 16:12 43.67768 -112.50853 39972 ft 417 kts 300°
2026-05-07 16:12 43.70314 -112.58057 39969 ft 417 kts 300°
2026-05-07 16:13 43.72840 -112.65220 39971 ft 417 kts 300°
2026-05-07 16:13 43.75378 -112.72435 39967 ft 417 kts 300°
2026-05-07 16:14 43.77910 -112.79655 39959 ft 417 kts 300°
2026-05-07 16:14 43.80438 -112.86881 39967 ft 417 kts 300°
2026-05-07 16:15 43.82965 -112.94121 39956 ft 418 kts 300°
2026-05-07 16:15 43.85490 -113.01377 39955 ft 418 kts 300°
2026-05-07 16:16 43.88009 -113.08635 39951 ft 418 kts 299°
2026-05-07 16:16 43.90526 -113.15907 39950 ft 419 kts 299°
2026-05-07 16:17 43.93046 -113.23206 39949 ft 419 kts 299°
2026-05-07 16:17 43.95562 -113.30514 39944 ft 420 kts 299°
2026-05-07 16:18 43.98076 -113.37832 39950 ft 420 kts 299°
2026-05-07 16:18 44.00589 -113.45174 39950 ft 421 kts 299°
2026-05-07 16:19 44.03094 -113.52513 39952 ft 421 kts 299°
2026-05-07 16:19 44.05604 -113.59892 39954 ft 423 kts 299°
2026-05-07 16:20 44.08125 -113.67306 39954 ft 423 kts 299°
2026-05-07 16:20 44.10620 -113.74672 39954 ft 424 kts 299°
2026-05-07 16:21 44.13128 -113.82093 39958 ft 423 kts 299°
2026-05-07 16:21 44.15622 -113.89501 39947 ft 422 kts 299°
2026-05-07 16:22 44.18109 -113.96906 39950 ft 421 kts 299°
2026-05-07 16:22 44.20584 -114.04291 39976 ft 420 kts 298°
2026-05-07 16:23 44.23050 -114.11678 39970 ft 421 kts 298°
2026-05-07 16:23 44.25516 -114.19081 39977 ft 421 kts 298°
2026-05-07 16:24 44.27979 -114.26496 40011 ft 421 kts 298°
2026-05-07 16:24 44.30439 -114.33921 39992 ft 422 kts 298°
2026-05-07 16:25 44.32896 -114.41356 39992 ft 423 kts 298°
2026-05-07 16:25 44.35358 -114.48828 39995 ft 423 kts 298°
2026-05-07 16:26 44.37816 -114.56310 39987 ft 424 kts 298°
2026-05-07 16:26 44.40278 -114.63825 39976 ft 426 kts 298°
2026-05-07 16:27 44.42724 -114.71312 39972 ft 426 kts 298°
2026-05-07 16:27 44.45178 -114.78854 39978 ft 425 kts 298°
2026-05-07 16:28 44.47621 -114.86377 39978 ft 424 kts 298°
2026-05-07 16:28 44.50056 -114.93894 39987 ft 423 kts 298°
2026-05-07 16:29 44.52484 -115.01415 39988 ft 424 kts 298°
2026-05-07 16:29 44.54913 -115.08962 40005 ft 425 kts 298°
2026-05-07 16:30 44.57350 -115.16545 39996 ft 427 kts 298°
2026-05-07 16:30 44.59782 -115.24140 40007 ft 427 kts 297°
2026-05-07 16:31 44.62213 -115.31756 40012 ft 428 kts 297°
2026-05-07 16:31 44.64648 -115.39406 40015 ft 429 kts 297°
2026-05-07 16:32 44.67071 -115.47047 40008 ft 427 kts 297°
2026-05-07 16:32 44.69481 -115.54666 40011 ft 425 kts 297°
2026-05-07 16:33 44.71858 -115.62202 40011 ft 424 kts 297°
2026-05-07 16:33 44.74245 -115.69790 40033 ft 426 kts 297°
2026-05-07 16:34 44.76647 -115.77439 40064 ft 429 kts 297°
2026-05-07 16:34 44.79064 -115.85162 40084 ft 432 kts 297°
2026-05-07 16:35 44.81482 -115.92919 40103 ft 432 kts 297°
2026-05-07 16:35 44.83894 -116.00683 40118 ft 432 kts 297°
2026-05-07 16:36 44.86291 -116.08421 40112 ft 430 kts 297°
2026-05-07 16:36 44.88675 -116.16138 40115 ft 428 kts 296°
2026-05-07 16:37 44.91047 -116.23840 40116 ft 427 kts 296°
2026-05-07 16:37 44.93408 -116.31524 40100 ft 427 kts 296°
2026-05-07 16:38 44.95757 -116.39195 40085 ft 426 kts 296°
2026-05-07 16:38 44.98092 -116.46845 40062 ft 426 kts 296°
2026-05-07 16:39 45.00433 -116.54535 40046 ft 426 kts 296°
2026-05-07 16:39 45.02773 -116.62246 40039 ft 427 kts 296°
2026-05-07 16:40 45.05110 -116.69971 40045 ft 428 kts 296°
2026-05-07 16:40 45.07450 -116.77728 40048 ft 430 kts 296°
2026-05-07 16:41 45.09797 -116.85529 40052 ft 431 kts 295°
2026-05-07 16:41 45.12140 -116.93352 40067 ft 432 kts 295°
2026-05-07 16:42 45.14488 -117.01210 40074 ft 432 kts 295°
2026-05-07 16:42 45.16809 -117.09000 40089 ft 432 kts 295°
2026-05-07 16:43 45.19139 -117.16844 40097 ft 431 kts 295°
2026-05-07 16:43 45.21457 -117.24676 40118 ft 431 kts 294°
2026-05-07 16:44 45.23776 -117.32528 40113 ft 431 kts 295°
2026-05-07 16:44 45.26080 -117.40360 40088 ft 430 kts 295°
2026-05-07 16:45 45.28371 -117.48182 40079 ft 429 kts 295°
2026-05-07 16:45 45.30648 -117.55981 40114 ft 427 kts 295°
2026-05-07 16:46 45.32926 -117.63788 40095 ft 429 kts 294°
2026-05-07 16:46 45.35210 -117.71647 40115 ft 430 kts 294°
2026-05-07 16:47 45.37488 -117.79513 40094 ft 432 kts 294°
2026-05-07 16:47 45.39778 -117.87446 40090 ft 434 kts 294°
2026-05-07 16:48 45.42070 -117.95412 40108 ft 435 kts 294°
2026-05-07 16:48 45.44358 -118.03389 40117 ft 435 kts 294°
2026-05-07 16:49 45.46636 -118.11358 40114 ft 434 kts 294°
2026-05-07 16:49 45.48904 -118.19320 40094 ft 431 kts 293°
2026-05-07 16:49 45.50009 -118.23213 40080 ft 415 kts 293°
2026-05-07 16:50 45.51082 -118.26996 40096 ft 410 kts 293°
2026-05-07 16:50 45.53212 -118.34512 40093 ft 412 kts 294°
2026-05-07 16:51 45.55361 -118.42121 40093 ft 415 kts 293°
2026-05-07 16:51 45.57516 -118.49777 40096 ft 417 kts 293°
2026-05-07 16:52 45.59676 -118.57477 40092 ft 418 kts 293°
2026-05-07 16:52 45.61835 -118.65198 40096 ft 419 kts 293°
2026-05-07 16:53 45.63989 -118.72927 40097 ft 418 kts 293°
2026-05-07 16:53 45.66136 -118.80650 40099 ft 418 kts 293°
2026-05-07 16:54 45.68300 -118.88359 40096 ft 417 kts 296°
2026-05-07 16:54 45.71131 -118.95556 40108 ft 415 kts 303°
2026-05-07 16:55 45.74609 -119.02165 40101 ft 415 kts 309°
2026-05-07 16:55 45.78346 -119.08409 40086 ft 416 kts 309°
2026-05-07 16:56 45.82113 -119.14692 40092 ft 416 kts 309°
2026-05-07 16:56 45.87097 -119.23103 40091 ft 415 kts 309°
2026-05-07 16:57 45.90827 -119.29437 40093 ft 415 kts 309°
2026-05-07 16:57 45.94550 -119.35776 40083 ft 415 kts 309°
2026-05-07 16:58 45.98270 -119.42125 40076 ft 415 kts 309°
2026-05-07 16:58 46.01988 -119.48485 40064 ft 415 kts 309°
2026-05-07 16:59 46.05702 -119.54851 40054 ft 415 kts 309°
2026-05-07 16:59 46.09414 -119.61228 40049 ft 416 kts 309°
2026-05-07 17:00 46.13128 -119.67624 40048 ft 416 kts 309°
2026-05-07 17:00 46.16838 -119.74028 40045 ft 416 kts 309°
2026-05-07 17:01 46.20548 -119.80448 40041 ft 416 kts 309°
2026-05-07 17:01 46.24250 -119.86879 40033 ft 416 kts 308°
2026-05-07 17:02 46.27953 -119.93323 40034 ft 417 kts 308°
2026-05-07 17:02 46.31627 -119.99734 40028 ft 417 kts 308°
2026-05-07 17:03 46.35346 -120.06236 40024 ft 416 kts 308°
2026-05-07 17:03 46.39031 -120.12696 40035 ft 416 kts 308°
2026-05-07 17:04 46.42689 -120.19123 40038 ft 416 kts 308°
2026-05-07 17:04 46.46369 -120.25606 40047 ft 416 kts 308°
2026-05-07 17:05 46.50042 -120.32090 40055 ft 416 kts 308°
2026-05-07 17:05 46.53703 -120.38569 40006 ft 412 kts 308°
2026-05-07 17:06 46.55515 -120.41780 39732 ft 411 kts 308°
2026-05-07 17:06 46.57296 -120.45016 39353 ft 411 kts 306°
2026-05-07 17:06 46.58956 -120.48384 38984 ft 410 kts 304°
2026-05-07 17:06 46.60585 -120.51794 38625 ft 408 kts 304°
2026-05-07 17:07 46.62189 -120.55181 38057 ft 410 kts 304°
2026-05-07 17:07 46.63820 -120.58629 37284 ft 415 kts 304°
2026-05-07 17:07 46.65469 -120.62106 36427 ft 421 kts 304°
2026-05-07 17:07 46.67147 -120.65639 35548 ft 427 kts 304°
2026-05-07 17:08 46.68840 -120.69202 35131 ft 424 kts 304°
2026-05-07 17:08 46.70515 -120.72726 35213 ft 425 kts 304°
2026-05-07 17:08 46.73904 -120.79871 35303 ft 432 kts 304°
2026-05-07 17:09 46.77269 -120.86983 34730 ft 418 kts 304°
2026-05-07 17:09 46.78919 -120.90480 33523 ft 424 kts 304°
2026-05-07 17:09 46.80564 -120.93965 31996 ft 436 kts 304°
2026-05-07 17:10 46.82305 -120.97659 30512 ft 447 kts 304°
2026-05-07 17:10 46.84074 -121.01420 29289 ft 449 kts 304°
2026-05-07 17:10 46.85830 -121.05163 28388 ft 444 kts 305°
2026-05-07 17:10 46.87564 -121.08862 27573 ft 438 kts 305°
2026-05-07 17:11 46.89273 -121.12511 26759 ft 433 kts 305°
2026-05-07 17:11 46.90944 -121.16087 25915 ft 430 kts 305°
2026-05-07 17:11 46.92624 -121.19683 25074 ft 428 kts 306°
2026-05-07 17:11 46.94297 -121.23270 24253 ft 426 kts 306°
2026-05-07 17:12 46.95967 -121.26852 23384 ft 425 kts 306°
2026-05-07 17:12 46.97630 -121.30422 22540 ft 421 kts 306°
2026-05-07 17:12 46.99266 -121.33942 21824 ft 416 kts 306°
2026-05-07 17:12 47.00886 -121.37433 21121 ft 412 kts 305°
2026-05-07 17:13 47.02484 -121.40881 20512 ft 407 kts 305°
2026-05-07 17:13 47.04044 -121.44253 20393 ft 390 kts 305°
2026-05-07 17:13 47.05534 -121.47476 20301 ft 375 kts 305°
2026-05-07 17:13 47.06974 -121.50591 20214 ft 363 kts 305°
2026-05-07 17:14 47.08372 -121.53622 20073 ft 354 kts 305°
2026-05-07 17:14 47.09739 -121.56589 19803 ft 349 kts 305°
2026-05-07 17:14 47.11095 -121.59535 19423 ft 348 kts 305°
2026-05-07 17:14 47.12448 -121.62477 19024 ft 348 kts 305°
2026-05-07 17:15 47.13803 -121.65424 18652 ft 347 kts 305°
2026-05-07 17:15 47.15150 -121.68359 18281 ft 346 kts 305°
2026-05-07 17:15 47.16491 -121.71285 17898 ft 344 kts 305°
2026-05-07 17:15 47.17642 -121.73799 17576 ft 342 kts 304°
2026-05-07 17:16 47.18989 -121.76743 17191 ft 340 kts 304°
2026-05-07 17:16 47.20304 -121.79621 16799 ft 338 kts 304°
2026-05-07 17:16 47.21612 -121.82484 16438 ft 337 kts 304°
2026-05-07 17:16 47.22916 -121.85341 16087 ft 335 kts 304°
2026-05-07 17:17 47.24190 -121.88138 15739 ft 333 kts 304°
2026-05-07 17:17 47.25473 -121.90961 15386 ft 331 kts 304°
2026-05-07 17:17 47.26757 -121.93783 15040 ft 330 kts 304°
2026-05-07 17:17 47.28024 -121.96573 14702 ft 328 kts 304°
2026-05-07 17:18 47.29291 -121.99364 14365 ft 326 kts 304°
2026-05-07 17:18 47.30548 -122.02139 14020 ft 325 kts 304°
2026-05-07 17:18 47.31797 -122.04896 13628 ft 324 kts 304°
2026-05-07 17:18 47.33049 -122.07663 13260 ft 322 kts 304°
2026-05-07 17:19 47.34288 -122.10403 12960 ft 319 kts 304°
2026-05-07 17:19 47.35497 -122.13082 12838 ft 310 kts 304°
2026-05-07 17:19 47.36708 -122.15639 12628 ft 298 kts 312°
2026-05-07 17:19 47.38382 -122.17386 12266 ft 297 kts 338°
2026-05-07 17:20 47.40369 -122.18112 12022 ft 294 kts 352°
2026-05-07 17:20 47.42391 -122.18447 11761 ft 291 kts 353°
2026-05-07 17:20 47.44387 -122.18730 11613 ft 284 kts 354°
2026-05-07 17:20 47.46335 -122.19006 11430 ft 280 kts 354°
2026-05-07 17:21 47.48258 -122.19286 11188 ft 278 kts 354°
2026-05-07 17:21 47.50178 -122.19574 10905 ft 278 kts 354°
2026-05-07 17:21 47.52095 -122.19868 10641 ft 277 kts 353°
2026-05-07 17:21 47.54001 -122.20165 10385 ft 276 kts 353°
2026-05-07 17:22 47.55915 -122.20466 10132 ft 275 kts 353°
2026-05-07 17:22 47.57815 -122.20766 9867 ft 274 kts 353°
2026-05-07 17:22 47.59682 -122.21060 9600 ft 273 kts 353°
2026-05-07 17:22 47.61571 -122.21428 9285 ft 268 kts 345°
2026-05-07 17:23 47.63193 -122.22659 8869 ft 264 kts 324°
2026-05-07 17:23 47.64802 -122.23829 8682 ft 250 kts 347°
2026-05-07 17:23 47.66459 -122.24212 8612 ft 238 kts 353°
2026-05-07 17:23 47.68064 -122.24423 8529 ft 228 kts 355°
2026-05-07 17:24 47.69619 -122.24576 8411 ft 219 kts 356°
2026-05-07 17:24 47.71109 -122.24717 8248 ft 211 kts 356°
2026-05-07 17:24 47.72560 -122.24852 8044 ft 207 kts 356°
2026-05-07 17:24 47.73979 -122.24983 7804 ft 203 kts 356°
2026-05-07 17:25 47.75393 -122.25114 7409 ft 205 kts 356°
2026-05-07 17:25 47.76765 -122.25540 6934 ft 205 kts 329°
2026-05-07 17:25 47.77603 -122.27201 6532 ft 207 kts 286°
2026-05-07 17:25 47.77532 -122.29289 6162 ft 208 kts 249°
2026-05-07 17:26 47.76604 -122.30912 5767 ft 209 kts 211°
2026-05-07 17:26 47.75213 -122.31471 5387 ft 208 kts 185°
2026-05-07 17:26 47.73776 -122.31556 5112 ft 206 kts 180°
2026-05-07 17:26 47.72350 -122.31570 4948 ft 205 kts 180°
2026-05-07 17:27 47.70923 -122.31578 4791 ft 206 kts 180°
2026-05-07 17:27 47.69485 -122.31586 4654 ft 207 kts 180°
2026-05-07 17:27 47.68049 -122.31597 4500 ft 206 kts 180°
2026-05-07 17:27 47.66612 -122.31609 4390 ft 206 kts 180°
2026-05-07 17:28 47.65174 -122.31621 4182 ft 208 kts 180°
2026-05-07 17:28 47.63728 -122.31634 3912 ft 207 kts 180°
2026-05-07 17:28 47.62306 -122.31646 3633 ft 202 kts 180°
2026-05-07 17:28 47.60919 -122.31658 3369 ft 195 kts 180°
2026-05-07 17:29 47.59604 -122.31670 3094 ft 182 kts 180°
2026-05-07 17:29 47.58395 -122.31681 2852 ft 166 kts 180°
2026-05-07 17:29 47.57295 -122.31690 2657 ft 150 kts 180°
2026-05-07 17:29 47.56301 -122.31699 2455 ft 138 kts 180°
2026-05-07 17:30 47.55356 -122.31707 2312 ft 135 kts 181°
2026-05-07 17:30 47.54406 -122.31727 2112 ft 138 kts 181°
2026-05-07 17:30 47.53452 -122.31730 1851 ft 134 kts 180°
2026-05-07 17:30 47.52531 -122.31738 1695 ft 135 kts 181°
2026-05-07 17:31 47.51592 -122.31739 1501 ft 135 kts 180°
2026-05-07 17:31 47.50646 -122.31751 1357 ft 136 kts 181°
2026-05-07 17:31 47.49688 -122.31760 1133 ft 138 kts 180°
2026-05-07 17:31 47.48743 -122.31769 943 ft 134 kts 181°
2026-05-07 17:32 47.47816 -122.31774 742 ft 132 kts 181°
2026-05-07 17:32 47.46910 -122.31788 574 ft 129 kts 181°
2026-05-07 17:32 47.46015 -122.31788 422 ft 125 kts 181°
2026-05-07 17:32 47.45478 -122.31797 404 ft 105 kts 180°
2026-05-07 17:33 47.44778 -122.31801 392 ft 45 kts 180°
2026-05-07 17:33 47.44608 -122.31803 386 ft 13 kts 181°
2026-05-07 17:33 47.44444 -122.31803 380 ft 33 kts 174°
2026-05-07 17:33 47.44244 -122.31700 374 ft 22 kts 151°
2026-05-07 17:34 47.44109 -122.31585 374 ft 22 kts 150°
2026-05-07 17:34 47.43974 -122.31474 372 ft 22 kts 150°
2026-05-07 17:34 47.43850 -122.31365 376 ft 18 kts 140°
2026-05-07 17:34 47.43809 -122.31194 376 ft 18 kts 89°
2026-05-07 17:35 47.43807 -122.31005 377 ft 18 kts 90°
2026-05-07 17:35 47.43807 -122.30815 381 ft 18 kts 90°
2026-05-07 17:35 47.43787 -122.30645 382 ft 15 kts 134°
2026-05-07 17:35 47.43728 -122.30571 382 ft 9 kts 109°
2026-05-07 17:36 47.43721 -122.30465 384 ft 12 kts 92°
2026-05-07 17:36 47.43724 -122.30333 385 ft 14 kts 85°
2026-05-07 17:36 47.43746 -122.30176 387 ft 17 kts 78°
2026-05-07 17:36 47.43774 -122.30007 389 ft 14 kts 66°
2026-05-07 17:37 47.43829 -122.29894 392 ft 10 kts 69°
2026-05-07 17:37 47.43835 -122.29867 393 ft 1 kts 70°
2026-05-07 17:37 47.43836 -122.29860 393 ft 0 kts 70°